timestamp,surface_pressure_avg,surface_temp_avg,battery_voltage,lat,long
2018-02-03 00:00:00+00:00,358.3663,1.0,12.41,47.84626,-54.09684
2018-02-03 00:10:00+00:00,363.8212,1.0,12.41,47.84626,-54.09684
2018-02-03 00:20:00+00:00,374.0778,1.0,12.49,47.84626,-54.09684
2018-02-03 00:30:00+00:00,381.9479,1.09,12.49,47.84626,-54.09684
2018-02-03 00:40:00+00:00,381.9913,1.1,12.49,47.84626,-54.09684
2018-02-03 00:50:00+00:00,379.2946,1.1,12.49,47.84626,-54.09684
2018-02-03 01:00:00+00:00,381.2496,1.1,12.41,47.84626,-54.09684
2018-02-03 01:10:00+00:00,386.9912,1.1,12.41,47.84626,-54.09684
2018-02-03 01:20:00+00:00,384.7279,1.1,12.49,47.84626,-54.09684
2018-02-03 01:30:00+00:00,377.6412,1.1,12.49,47.84626,-54.09684
2018-02-03 01:40:00+00:00,380.7229,1.1,12.49,47.84626,-54.09684
2018-02-03 01:50:00+00:00,381.8845,1.1,12.49,47.84626,-54.09684
2018-02-03 02:00:00+00:00,383.6062,1.1,12.41,47.84626,-54.09684
2018-02-03 02:10:00+00:00,384.5062,1.1,12.41,47.84626,-54.09684
2018-02-03 02:20:00+00:00,383.068,1.2,12.49,47.84626,-54.09684
2018-02-03 02:30:00+00:00,378.2795,1.24,12.41,47.84626,-54.09684
2018-02-03 02:40:00+00:00,371.5096,1.3,12.49,47.84626,-54.09684
2018-02-03 02:50:00+00:00,366.3063,1.3,12.49,47.84626,-54.09684
2018-02-03 03:00:00+00:00,356.828,1.2,12.41,47.84626,-54.09684
2018-02-03 03:10:00+00:00,345.923,1.2,12.41,47.84626,-54.09684
2018-02-03 03:20:00+00:00,344.7095,1.24,12.49,47.84626,-54.09684
2018-02-03 03:30:00+00:00,343.8945,1.23,12.49,47.84626,-54.09684
2018-02-03 03:40:00+00:00,337.9347,1.29,12.49,47.84626,-54.09684
2018-02-03 03:50:00+00:00,328.9463,1.2,12.49,47.84626,-54.09684
2018-02-03 04:00:00+00:00,325.058,1.2,12.41,47.84626,-54.09684
2018-02-03 04:10:00+00:00,315.5946,1.2,12.41,47.84626,-54.09684
2018-02-03 04:20:00+00:00,300.5663,1.2,12.49,47.84626,-54.09684
2018-02-03 04:30:00+00:00,295.428,1.2,12.49,47.84626,-54.09684
2018-02-03 04:40:00+00:00,290.5964,1.2,12.49,47.84626,-54.09684
2018-02-03 04:50:00+00:00,273.5664,1.2,12.49,47.84626,-54.09684
2018-02-03 05:00:00+00:00,259.0797,1.2,12.41,47.84626,-54.09684
2018-02-03 05:10:00+00:00,250.0964,1.2,12.41,47.84626,-54.09684
2018-02-03 05:20:00+00:00,238.7098,1.2,12.49,47.84626,-54.09684
2018-02-03 05:30:00+00:00,219.7664,1.2,12.49,47.84626,-54.09684
2018-02-03 05:40:00+00:00,207.9331,1.2,12.49,47.84626,-54.09684
2018-02-03 05:50:00+00:00,208.0231,1.2,12.49,47.84626,-54.09684
2018-02-03 06:00:00+00:00,202.9581,1.2,12.41,47.84626,-54.09684
2018-02-03 06:10:00+00:00,185.2982,1.2,12.41,47.84626,-54.09684
2018-02-03 06:20:00+00:00,177.7398,1.2,12.49,47.84626,-54.09684
2018-02-03 06:30:00+00:00,175.7265,1.2,12.49,47.84626,-54.09684
2018-02-03 06:40:00+00:00,167.4798,1.25,12.49,47.84626,-54.09684
2018-02-03 06:50:00+00:00,170.4265,1.3,12.49,47.84626,-54.09684
2018-02-03 07:00:00+00:00,178.5598,1.33,12.41,47.84626,-54.09684
2018-02-03 07:10:00+00:00,173.5598,1.4,12.41,47.84626,-54.09684
2018-02-03 07:20:00+00:00,172.6781,1.4,12.49,47.84626,-54.09684
2018-02-03 07:30:00+00:00,184.6664,1.4,12.41,47.84626,-54.09684
2018-02-03 07:40:00+00:00,193.1748,1.39,12.49,47.84626,-54.09684
2018-02-03 07:50:00+00:00,190.2115,1.4,12.49,47.84626,-54.09684
2018-02-03 08:00:00+00:00,191.3081,1.4,12.41,47.84626,-54.09684
2018-02-03 08:10:00+00:00,198.1265,1.39,12.41,47.84626,-54.09684
2018-02-03 08:20:00+00:00,193.5015,1.38,12.49,47.84626,-54.09684
2018-02-03 08:30:00+00:00,189.1515,1.37,12.41,47.84626,-54.09684
2018-02-03 08:40:00+00:00,197.0198,1.39,12.49,47.84626,-54.09684
2018-02-03 08:50:00+00:00,199.8231,1.33,12.49,47.84626,-54.09684
2018-02-03 09:00:00+00:00,195.9548,1.3,12.41,47.84626,-54.09684
2018-02-03 09:10:00+00:00,197.0348,1.3,12.41,47.84626,-54.09684
2018-02-03 09:20:00+00:00,213.1281,1.3,12.41,47.84626,-54.09684
2018-02-03 09:30:00+00:00,220.7814,1.3,12.41,47.84626,-54.09684
2018-02-03 09:40:00+00:00,219.0898,1.3,12.49,47.84626,-54.09684
2018-02-03 09:50:00+00:00,227.3315,1.2,12.49,47.84626,-54.09684
2018-02-03 10:00:00+00:00,235.1764,1.25,12.41,47.84626,-54.09684
2018-02-03 10:10:00+00:00,239.1447,1.2,12.41,47.84626,-54.09684
2018-02-03 10:20:00+00:00,245.6047,1.21,12.41,47.84626,-54.09684
2018-02-03 10:30:00+00:00,253.3597,1.23,12.41,47.84626,-54.09684
2018-02-03 10:40:00+00:00,252.9798,1.25,12.49,47.84626,-54.09684
2018-02-03 10:50:00+00:00,261.9781,1.23,12.49,47.84626,-54.09684
2018-02-03 11:00:00+00:00,276.1147,1.24,12.41,47.84626,-54.09684
2018-02-03 11:10:00+00:00,276.573,1.24,12.41,47.84626,-54.09684
2018-02-03 11:20:00+00:00,278.848,1.2,12.41,47.84626,-54.09684
2018-02-03 11:30:00+00:00,297.5347,1.26,12.41,47.84626,-54.09684
2018-02-03 11:40:00+00:00,314.7463,1.3,12.41,47.84626,-54.09684
2018-02-03 11:50:00+00:00,323.5613,1.3,12.49,47.84626,-54.09684
2018-02-03 12:00:00+00:00,330.5847,1.3,12.41,47.84626,-54.09684
2018-02-03 12:10:00+00:00,335.473,1.3,12.41,47.84626,-54.09684
2018-02-03 12:20:00+00:00,348.183,1.3,12.41,47.84626,-54.09684
2018-02-03 12:30:00+00:00,348.5397,1.3,12.41,47.84626,-54.09684
2018-02-03 12:40:00+00:00,360.2029,1.4,12.41,47.84626,-54.09684
2018-02-03 12:50:00+00:00,361.0146,1.3,12.41,47.84626,-54.09684
2018-02-03 13:00:00+00:00,369.4463,1.3,12.41,47.84626,-54.09684
2018-02-03 13:10:00+00:00,370.5495,1.4,12.41,47.84626,-54.09684
2018-02-03 13:20:00+00:00,374.0246,1.4,12.41,47.84626,-54.09684
2018-02-03 13:30:00+00:00,379.5696,1.4,12.41,47.84626,-54.09684
2018-02-03 13:40:00+00:00,383.3364,1.39,12.41,47.84626,-54.09684
2018-02-03 13:50:00+00:00,380.7479,1.3,12.41,47.84626,-54.09684
2018-02-03 14:00:00+00:00,376.1996,1.39,12.41,47.84626,-54.09684
2018-02-03 14:10:00+00:00,380.888,1.4,12.41,47.84626,-54.09684
2018-02-03 14:20:00+00:00,383.7729,1.4,12.41,47.84626,-54.09684
2018-02-03 14:30:00+00:00,367.4762,1.4,12.41,47.84626,-54.09684
2018-02-03 14:40:00+00:00,368.1846,1.4,12.41,47.84626,-54.09684
2018-02-03 14:50:00+00:00,376.1547,1.39,12.41,47.84626,-54.09684
2018-02-03 15:00:00+00:00,374.8296,1.34,12.41,47.84626,-54.09684
2018-02-03 15:10:00+00:00,360.6396,1.4,12.41,47.84626,-54.09684
2018-02-03 15:20:00+00:00,351.9779,1.4,12.41,47.84626,-54.09684
2018-02-03 15:30:00+00:00,350.0679,1.3,12.41,47.84626,-54.09684
2018-02-03 15:40:00+00:00,349.128,1.3,12.41,47.84626,-54.09684
2018-02-03 15:50:00+00:00,337.5013,1.38,12.41,47.84626,-54.09684
2018-02-03 16:00:00+00:00,328.118,1.3,12.41,47.84626,-54.09684
2018-02-03 16:10:00+00:00,319.683,1.3,12.41,47.84626,-54.09684
2018-02-03 16:20:00+00:00,317.1514,1.4,12.41,47.84626,-54.09684
2018-02-03 16:30:00+00:00,306.4846,1.4,12.41,47.84626,-54.09684
2018-02-03 16:40:00+00:00,291.6381,1.32,12.41,47.84626,-54.09684
2018-02-03 16:50:00+00:00,286.9064,1.33,12.41,47.84626,-54.09684
2018-02-03 17:00:00+00:00,280.688,1.33,12.41,47.84626,-54.09684
2018-02-03 17:10:00+00:00,260.6131,1.33,12.41,47.84626,-54.09684
2018-02-03 17:20:00+00:00,246.2614,1.33,12.41,47.84626,-54.09684
2018-02-03 17:30:00+00:00,241.8264,1.33,12.41,47.84626,-54.09684
2018-02-03 17:40:00+00:00,223.6064,1.34,12.41,47.84626,-54.09684
2018-02-03 17:50:00+00:00,210.0147,1.36,12.41,47.84626,-54.09684
2018-02-03 18:00:00+00:00,207.1681,1.2,12.41,47.84626,-54.09684
2018-02-03 18:10:00+00:00,197.6115,1.2,12.41,47.84626,-54.09684
2018-02-03 18:20:00+00:00,185.7531,1.3,12.41,47.84626,-54.09684
2018-02-03 18:30:00+00:00,183.7181,1.3,12.41,47.84626,-54.09684
2018-02-03 18:40:00+00:00,177.0215,1.3,12.41,47.84626,-54.09684
2018-02-03 18:50:00+00:00,165.8731,1.3,12.41,47.84626,-54.09684
2018-02-03 19:00:00+00:00,175.5665,1.34,12.49,47.84626,-54.09684
2018-02-03 19:10:00+00:00,177.7848,1.3,12.65,47.84626,-54.09684
2018-02-03 19:20:00+00:00,161.6365,1.17,12.73,47.84626,-54.09684
2018-02-03 19:30:00+00:00,159.3982,1.3,12.73,47.84626,-54.09684
2018-02-03 19:40:00+00:00,171.6732,1.27,12.73,47.84626,-54.09684
2018-02-03 19:50:00+00:00,169.8082,1.36,12.73,47.84626,-54.09684
2018-02-03 20:00:00+00:00,165.6882,1.33,12.57,47.84626,-54.09684
2018-02-03 20:10:00+00:00,177.5965,1.3,12.57,47.84626,-54.09684
2018-02-03 20:20:00+00:00,187.5031,1.3,12.57,47.84626,-54.09684
2018-02-03 20:30:00+00:00,187.2698,1.35,12.57,47.84626,-54.09684
2018-02-03 20:40:00+00:00,191.5648,1.39,12.57,47.84626,-54.09684
2018-02-03 20:50:00+00:00,204.4981,1.4,12.57,47.84626,-54.09684
2018-02-03 21:00:00+00:00,214.5748,1.38,12.49,47.84626,-54.09684
2018-02-03 21:10:00+00:00,215.6148,1.4,12.41,47.84626,-54.09684
2018-02-03 21:20:00+00:00,218.2365,1.4,12.49,47.84626,-54.09684
2018-02-03 21:30:00+00:00,223.1231,1.4,12.49,47.84626,-54.09684
2018-02-03 21:40:00+00:00,224.5964,1.4,12.49,47.84626,-54.09684
2018-02-03 21:50:00+00:00,227.6465,1.4,12.49,47.84626,-54.09684
2018-02-03 22:00:00+00:00,231.1181,1.4,12.41,47.84626,-54.09684
2018-02-03 22:10:00+00:00,231.4781,1.4,12.41,47.84626,-54.09684
2018-02-03 22:20:00+00:00,235.6097,1.4,12.41,47.84626,-54.09684
2018-02-03 22:30:00+00:00,242.3047,1.4,12.41,47.84626,-54.09684
2018-02-03 22:40:00+00:00,244.4931,1.4,12.41,47.84626,-54.09684
2018-02-03 22:50:00+00:00,251.7998,1.4,12.41,47.84626,-54.09684
2018-02-03 23:00:00+00:00,261.293,1.42,12.41,47.84626,-54.09684
2018-02-03 23:10:00+00:00,265.7764,1.49,12.41,47.84626,-54.09684
2018-02-03 23:20:00+00:00,271.4715,1.5,12.41,47.84626,-54.09684
2018-02-03 23:30:00+00:00,282.6997,1.5,12.41,47.84626,-54.09684
2018-02-03 23:40:00+00:00,285.9297,1.5,12.41,47.84626,-54.09684
2018-02-03 23:50:00+00:00,288.3597,1.5,12.41,47.84626,-54.09684
